Skip Page Navigation
NASA JPL Caltech
NASA Logo - Jet Propulsion Laboratory + View the NASA Portal
+ Near-Earth Object (NEO) Program
Search JPL
JPL Home Earth Solar System Stars & Galaxies Technology
JPL Solar System Dynamics
BODIES ORBITS EPHEMERIDES TOOLS PHYSICAL DATA DISCOVERY FAQ SITE MAP
JPL Small-Body Database Browser
Search: [ help ]  
2981 Chagall (1981 EE20)
Classification: Main-belt Asteroid          SPK-ID: 2002981
Ephemeris | Orbit Diagram | Orbital Elements | Physical Parameters | Discovery Circumstances | Close-Approach Data ]

[ show orbit diagram ]
Orbital Elements at Epoch 2457000.5 (2014-Dec-09.0) TDB
Reference: JPL 15 (heliocentric ecliptic J2000)
 Element Value Uncertainty (1-sigma)   Units 
e .1706361381254838 4.893e-08  
a 3.150750258689404 2.7453e-08 AU
q 2.613118402348775 1.5786e-07 AU
i .8652210171666815 5.6072e-06 deg
node 185.8772334241348 0.00033675 deg
peri 98.91744563572327 0.00033725 deg
M 276.1401410673479 2.2418e-05 deg
tp 2457476.351041825132
(2016-Mar-28.85104183)
0.00013005 JED
period 2042.769654485396
5.59
2.6698e-05
7.31e-08
d
yr
n .17623132359027 2.3033e-09 deg/d
Q 3.688382115030033 3.2137e-08 AU
  Orbit Determination Parameters
   # obs. used (total)      1479  
   data-arc span      22147 days (60.64 yr)  
   first obs. used      1954-06-07  
   last obs. used      2015-01-25  
   planetary ephem.      DE431  
   SB-pert. ephem.      SB431-BIG16  
   condition code      0  
   fit RMS      .50443  
   data source      ORB  
   producer      Otto Matic  
   solution date      2015-Mar-09 13:45:29  

Additional Information
 Earth MOID = 1.59819 AU 
 T_jup = 3.185 
[ show covariance matrix ]

Ephemeris | Orbit Diagram | Orbital Elements | Physical Parameters | Discovery Circumstances | Close-Approach Data ]

Physical Parameter Table
Parameter Symbol Value Units Sigma Reference Notes
absolute magnitude H 12.5 mag n/a MPO259358  
rotation period rot_per 0.11232 h n/a Asteroid Lightcurve DataBase (Rev. 2014-Mar-01) Result based on fragmentary lightcurve(s), may be completely wrong.
Published Reference List:
[Behrend, R. (2005) Observatoire de Geneve web site, http://obswww.unige.ch/~behrend/page_cou.html]

2981 Chagall (1981 EE20)          Discovered 1981-Mar-02 by Bus, S. J. at Siding Spring
Reference: DISCOVERY.DBLast Updated: 2003-08-29

[ show close-approach data ]
Alternate Designations
 1981 EE20 = 1954 LF = 1977 RN3 
Ephemeris | Orbit Diagram | Orbital Elements | Physical Parameters | Discovery Circumstances | Close-Approach Data ]
ABOUT SSD CREDITS/AWARDS PRIVACY/COPYRIGHT GLOSSARY LINKS
FirstGov 2015-Mar-31 06:39 UT
(server date/time)  
NASA Home Page
Site Manager:   Ryan S. Park
Webmaster  Alan B. Chamberlin